| time (UTC) | temp F | wind direction | speed MPH | gust MPH | rain 1hr in | rain 24hr in | rain mn in | humidity % | barometer mb |
| 20260504045830 | 58 | 192 | 5.0 | 11.0 | 0.00 | 0.00 | 0.00 | 45 | 999.4 |
| 20260504045329 | 58 | 191 | 6.0 | 11.0 | 0.00 | 0.00 | 0.00 | 44 | 999.5 |
| 20260504044831 | 58 | 217 | 6.0 | 11.0 | 0.00 | 0.00 | 0.00 | 44 | 999.5 |
| 20260504043830 | 58 | 197 | 6.0 | 10.0 | 0.00 | 0.00 | 0.00 | 44 | 999.7 |
| 20260504043329 | 58 | 193 | 5.0 | 11.0 | 0.00 | 0.00 | 0.00 | 44 | 999.8 |
| 20260504042830 | 58 | 180 | 5.0 | 11.0 | 0.00 | 0.00 | 0.00 | 44 | 999.9 |
| 20260504042330 | 58 | 183 | 6.0 | 10.0 | 0.00 | 0.00 | 0.00 | 44 | 1000.1 |
| 20260504041831 | 58 | 168 | 6.0 | 11.0 | 0.00 | 0.00 | 0.00 | 44 | 1000.2 |
| 20260504041329 | 58 | 217 | 5.0 | 11.0 | 0.00 | 0.00 | 0.00 | 44 | 1000.4 |
| 20260504040831 | 58 | 196 | 5.0 | 10.0 | 0.00 | 0.00 | 0.00 | 44 | 1000.5 |
| 20260504035331 | 58 | 188 | 6.0 | 11.0 | 0.00 | 0.00 | 0.00 | 43 | 1001.1 |
| 20260504034824 | 58 | 181 | 5.0 | 11.0 | 0.00 | 0.00 | 0.00 | 43 | 1001.1 |
| 20260504033819 | 58 | 196 | 5.0 | 9.0 | 0.00 | 0.00 | 0.00 | 43 | 1001.4 |
| 20260504033315 | 58 | 193 | 5.0 | 9.0 | 0.00 | 0.00 | 0.00 | 43 | 1001.5 |
| 20260504032315 | 58 | 199 | 4.0 | 9.0 | 0.00 | 0.00 | 0.00 | 43 | 1001.7 |
| 20260504031315 | 58 | 172 | 3.0 | 6.0 | 0.00 | 0.00 | 0.00 | 43 | 1001.9 |
| 20260504030815 | 58 | 184 | 3.0 | 6.0 | 0.00 | 0.00 | 0.00 | 43 | 1002.0 |
| 20260504025813 | 58 | 187 | 3.0 | 5.0 | 0.00 | 0.00 | 0.00 | 44 | 1002.2 |
| 20260504025315 | 59 | 192 | 2.0 | 5.0 | 0.00 | 0.00 | 0.00 | 44 | 1002.3 |
| 20260504024813 | 59 | 190 | 2.0 | 5.0 | 0.00 | 0.00 | 0.00 | 42 | 1002.4 |
| 20260504024314 | 59 | 199 | 2.0 | 4.0 | 0.00 | 0.00 | 0.00 | 43 | 1002.5 |
| 20260504023312 | 60 | 186 | 1.0 | 3.0 | 0.00 | 0.00 | 0.00 | 42 | 1002.6 |
| 20260504022811 | 60 | 185 | 1.0 | 3.0 | 0.00 | 0.00 | 0.00 | 41 | 1002.6 |
| 20260504022307 | 61 | 185 | 2.0 | 4.0 | 0.00 | 0.00 | 0.00 | 40 | 1002.8 |
| 20260504021805 | 61 | 184 | 2.0 | 4.0 | 0.00 | 0.00 | 0.00 | 38 | 1002.8 |
| 20260504020803 | 62 | 186 | 1.0 | 3.0 | 0.00 | 0.00 | 0.00 | 40 | 1002.9 |
| 20260504015802 | 63 | 186 | 1.0 | 2.0 | 0.00 | 0.00 | 0.00 | 38 | 1002.9 |
| 20260504014301 | 64 | 187 | 1.0 | 2.0 | 0.00 | 0.00 | 0.00 | 36 | 1003.0 |
| 20260504013802 | 65 | 187 | 1.0 | 2.0 | 0.00 | 0.00 | 0.00 | 34 | 1003.2 |
| 20260504012803 | 64 | 249 | 2.0 | 5.0 | 0.00 | 0.00 | 0.00 | 33 | 1003.3 |
| 20260504012304 | 64 | 252 | 2.0 | 6.0 | 0.00 | 0.00 | 0.00 | 32 | 1003.3 |
| 20260504011801 | 65 | 242 | 3.0 | 7.0 | 0.00 | 0.00 | 0.00 | 32 | 1003.3 |
| 20260504011301 | 65 | 262 | 3.0 | 7.0 | 0.00 | 0.00 | 0.00 | 32 | 1003.2 |
| 20260504010802 | 65 | 238 | 4.0 | 7.0 | 0.00 | 0.00 | 0.00 | 31 | 1003.3 |
| 20260504010302 | 66 | 266 | 4.0 | 8.0 | 0.00 | 0.00 | 0.00 | 31 | 1003.3 |
| 20260504005802 | 66 | 267 | 5.0 | 10.0 | 0.00 | 0.00 | 0.00 | 31 | 1003.5 |
| 20260504005301 | 66 | 265 | 5.0 | 10.0 | 0.00 | 0.00 | 0.00 | 30 | 1003.3 |
| 20260504004802 | 67 | 248 | 6.0 | 12.0 | 0.00 | 0.00 | 0.00 | 31 | 1003.5 |
| 20260504003254 | 67 | 248 | 8.0 | 14.0 | 0.00 | 0.00 | 0.00 | 30 | 1003.5 |
| 20260504002748 | 67 | 213 | 7.0 | 13.0 | 0.00 | 0.00 | 0.00 | 29 | 1003.6 |
| 20260504001740 | 68 | 256 | 7.0 | 13.0 | 0.00 | 0.00 | 0.00 | 29 | 1003.7 |
| 20260504001240 | 68 | 259 | 6.0 | 14.0 | 0.00 | 0.00 | 0.00 | 29 | 1003.8 |
| 20260504000739 | 68 | 241 | 6.0 | 14.0 | 0.00 | 0.00 | 0.00 | 28 | 1003.7 |
| 20260504000241 | 68 | 235 | 6.0 | 14.0 | 0.00 | 0.00 | 0.00 | 28 | 1003.8 |
| 20260503235739 | 68 | 263 | 7.0 | 15.0 | 0.00 | 0.00 | 0.00 | 27 | 1003.7 |
| 20260503235240 | 68 | 260 | 7.0 | 15.0 | 0.00 | 0.00 | 0.00 | 27 | 1003.9 |
| 20260503233739 | 68 | 213 | 8.0 | 17.0 | 0.00 | 0.00 | 0.00 | 28 | 1004.0 |
| 20260503233236 | 68 | 255 | 8.0 | 15.0 | 0.00 | 0.00 | 0.00 | 28 | 1004.0 |
| 20260503232736 | 67 | 277 | 8.0 | 15.0 | 0.00 | 0.00 | 0.00 | 28 | 1004.1 |
| 20260503232236 | 67 | 274 | 9.0 | 15.0 | 0.00 | 0.00 | 0.00 | 28 | 1004.2 |
| 20260503231735 | 67 | 246 | 9.0 | 15.0 | 0.00 | 0.00 | 0.00 | 28 | 1004.2 |
| 20260503231237 | 68 | 257 | 9.0 | 17.0 | 0.00 | 0.00 | 0.00 | 28 | 1004.2 |
| 20260503230736 | 68 | 293 | 10.0 | 17.0 | 0.00 | 0.00 | 0.00 | 27 | 1004.2 |
| 20260503230235 | 68 | 288 | 9.0 | 17.0 | 0.00 | 0.00 | 0.00 | 28 | 1004.2 |
| 20260503225737 | 68 | 241 | 8.0 | 16.0 | 0.00 | 0.00 | 0.00 | 28 | 1004.2 |
| 20260503225230 | 69 | 261 | 9.0 | 19.0 | 0.00 | 0.00 | 0.00 | 26 | 1004.1 |
| 20260503224731 | 69 | 281 | 11.0 | 22.0 | 0.00 | 0.00 | 0.00 | 26 | 1004.2 |
| 20260503224231 | 69 | 261 | 9.0 | 22.0 | 0.00 | 0.00 | 0.00 | 27 | 1004.1 |
| 20260503223732 | 69 | 270 | 8.0 | 17.0 | 0.00 | 0.00 | 0.00 | 26 | 1004.2 |
| 20260503223232 | 69 | 298 | 10.0 | 19.0 | 0.00 | 0.00 | 0.00 | 25 | 1004.2 |
| 20260503222233 | 69 | 278 | 9.0 | 16.0 | 0.00 | 0.00 | 0.00 | 26 | 1004.3 |
| 20260503220231 | 69 | 215 | 10.0 | 20.0 | 0.00 | 0.00 | 0.00 | 27 | 1004.5 |
| 20260503215731 | 70 | 265 | 9.0 | 20.0 | 0.00 | 0.00 | 0.00 | 25 | 1004.5 |
| 20260503215229 | 70 | 200 | 7.0 | 16.0 | 0.00 | 0.00 | 0.00 | 25 | 1004.4 |
| 20260503214729 | 69 | 244 | 6.0 | 13.0 | 0.00 | 0.00 | 0.00 | 25 | 1004.6 |
| 20260503214230 | 69 | 273 | 6.0 | 12.0 | 0.00 | 0.00 | 0.00 | 26 | 1004.5 |
| 20260503213729 | 69 | 261 | 8.0 | 16.0 | 0.00 | 0.00 | 0.00 | 25 | 1004.6 |
| 20260503213229 | 69 | 259 | 10.0 | 18.0 | 0.00 | 0.00 | 0.00 | 26 | 1004.7 |
| 20260503212730 | 69 | 312 | 9.0 | 18.0 | 0.00 | 0.00 | 0.00 | 26 | 1004.7 |
| 20260503212229 | 69 | 300 | 8.0 | 15.0 | 0.00 | 0.00 | 0.00 | 26 | 1004.8 |
| 20260503211729 | 68 | 261 | 8.0 | 19.0 | 0.00 | 0.00 | 0.00 | 27 | 1004.8 |
| 20260503211230 | 69 | 246 | 8.0 | 19.0 | 0.00 | 0.00 | 0.00 | 26 | 1004.9 |
| 20260503210730 | 68 | 284 | 10.0 | 18.0 | 0.00 | 0.00 | 0.00 | 26 | 1005.0 |
| 20260503210229 | 68 | 280 | 11.0 | 18.0 | 0.00 | 0.00 | 0.00 | 27 | 1005.0 |
| 20260503205730 | 68 | 298 | 10.0 | 18.0 | 0.00 | 0.00 | 0.00 | 26 | 1005.1 |
| 20260503205228 | 68 | 311 | 10.0 | 18.0 | 0.00 | 0.00 | 0.00 | 26 | 1005.2 |
| 20260503204731 | 68 | 254 | 10.0 | 18.0 | 0.00 | 0.00 | 0.00 | 25 | 1005.2 |
| 20260503204229 | 68 | 305 | 9.0 | 18.0 | 0.00 | 0.00 | 0.00 | 25 | 1005.3 |
| 20260503203731 | 68 | 274 | 7.0 | 18.0 | 0.00 | 0.00 | 0.00 | 25 | 1005.4 |
| 20260503203229 | 68 | 333 | 7.0 | 13.0 | 0.00 | 0.00 | 0.00 | 27 | 1005.4 |
| 20260503202230 | 67 | 225 | 7.0 | 14.0 | 0.00 | 0.00 | 0.00 | 28 | 1005.6 |
| 20260503201728 | 67 | 282 | 7.0 | 16.0 | 0.00 | 0.00 | 0.00 | 27 | 1005.6 |
| 20260503201229 | 67 | 269 | 9.0 | 16.0 | 0.00 | 0.00 | 0.00 | 27 | 1005.8 |
| 20260503200728 | 67 | 276 | 7.0 | 17.0 | 0.00 | 0.00 | 0.00 | 28 | 1005.9 |
| 20260503200229 | 67 | 294 | 5.0 | 17.0 | 0.00 | 0.00 | 0.00 | 28 | 1005.9 |
| 20260503195729 | 67 | 348 | 7.0 | 15.0 | 0.00 | 0.00 | 0.00 | 26 | 1006.0 |
| 20260503195228 | 66 | 340 | 8.0 | 20.0 | 0.00 | 0.00 | 0.00 | 28 | 1006.0 |
| 20260503194730 | 66 | 320 | 10.0 | 20.0 | 0.00 | 0.00 | 0.00 | 27 | 1006.1 |
| 20260503194229 | 66 | 321 | 10.0 | 18.0 | 0.00 | 0.00 | 0.00 | 27 | 1006.1 |
| 20260503193730 | 66 | 295 | 7.0 | 17.0 | 0.00 | 0.00 | 0.00 | 27 | 1006.1 |
| 20260503193229 | 66 | 316 | 8.0 | 16.0 | 0.00 | 0.00 | 0.00 | 29 | 1006.1 |
| 20260503192728 | 65 | 269 | 9.0 | 16.0 | 0.00 | 0.00 | 0.00 | 29 | 1006.3 |
| 20260503192230 | 65 | 340 | 8.0 | 15.0 | 0.00 | 0.00 | 0.00 | 28 | 1006.2 |
| 20260503191730 | 65 | 347 | 8.0 | 17.0 | 0.00 | 0.00 | 0.00 | 29 | 1006.2 |
| 20260503191229 | 65 | 288 | 9.0 | 17.0 | 0.00 | 0.00 | 0.00 | 29 | 1006.3 |
| 20260503190728 | 65 | 297 | 9.0 | 21.0 | 0.00 | 0.00 | 0.00 | 29 | 1006.4 |
| 20260503190229 | 65 | 278 | 10.0 | 21.0 | 0.00 | 0.00 | 0.00 | 28 | 1006.6 |
| 20260503185729 | 65 | 288 | 11.0 | 20.0 | 0.00 | 0.00 | 0.00 | 28 | 1006.6 |
| 20260503183729 | 65 | 279 | 11.0 | 18.0 | 0.00 | 0.00 | 0.00 | 27 | 1006.9 |
| 20260503183230 | 64 | 317 | 11.0 | 22.0 | 0.00 | 0.00 | 0.00 | 27 | 1006.9 |
| 20260503182730 | 64 | 323 | 11.0 | 22.0 | 0.00 | 0.00 | 0.00 | 26 | 1007.1 |
| 20260503182229 | 64 | 256 | 12.0 | 18.0 | 0.00 | 0.00 | 0.00 | 25 | 1007.0 |
| 20260503181730 | 64 | 301 | 11.0 | 23.0 | 0.00 | 0.00 | 0.00 | 25 | 1007.0 |
| 20260503181230 | 64 | 336 | 11.0 | 23.0 | 0.00 | 0.00 | 0.00 | 25 | 1007.1 |
| 20260503180729 | 64 | 320 | 10.0 | 20.0 | 0.00 | 0.00 | 0.00 | 24 | 1007.1 |
| 20260503180233 | 64 | 344 | 11.0 | 24.0 | 0.00 | 0.00 | 0.00 | 24 | 1007.1 |
| 20260503175731 | 64 | 329 | 12.0 | 24.0 | 0.00 | 0.00 | 0.00 | 24 | 1007.2 |
| 20260503175230 | 64 | 318 | 12.0 | 22.0 | 0.00 | 0.00 | 0.00 | 24 | 1007.2 |
| 20260503174728 | 64 | 308 | 10.0 | 19.0 | 0.00 | 0.00 | 0.00 | 23 | 1007.2 |
| 20260503174223 | 63 | 265 | 10.0 | 18.0 | 0.00 | 0.00 | 0.00 | 23 | 1007.2 |
| 20260503173712 | 63 | 321 | 11.0 | 23.0 | 0.00 | 0.00 | 0.00 | 22 | 1007.3 |
| 20260503173216 | 63 | 292 | 11.0 | 23.0 | 0.00 | 0.00 | 0.00 | 22 | 1007.4 |
| 20260503172214 | 63 | 348 | 11.0 | 20.0 | 0.00 | 0.00 | 0.00 | 24 | 1007.4 |
| 20260503171712 | 63 | 319 | 10.0 | 20.0 | 0.00 | 0.00 | 0.00 | 25 | 1007.4 |
| 20260503171211 | 63 | 313 | 12.0 | 19.0 | 0.00 | 0.00 | 0.00 | 31 | 1007.5 |
| 20260503170712 | 62 | 324 | 12.0 | 21.0 | 0.00 | 0.00 | 0.00 | 31 | 1007.3 |
| 20260503170210 | 62 | 296 | 11.0 | 21.0 | 0.00 | 0.00 | 0.00 | 31 | 1007.4 |
| 20260503160201 | 61 | 307 | 12.0 | 20.0 | 0.00 | 0.00 | 0.00 | 37 | 1007.3 |
| 20260503150701 | 61 | 294 | 11.0 | 23.0 | 0.00 | 0.00 | 0.00 | 46 | 1007.0 |
| 20260503150202 | 61 | 338 | 11.0 | 19.0 | 0.00 | 0.00 | 0.00 | 46 | 1007.0 |
| 20260503140108 | 58 | 350 | 12.0 | 19.0 | 0.00 | 0.00 | 0.00 | 57 | 1006.9 |
| 20260503131104 | 55 | 342 | 9.0 | 19.0 | 0.00 | 0.00 | 0.00 | 61 | 1006.6 |
| 20260503130106 | 54 | 347 | 9.0 | 15.0 | 0.00 | 0.00 | 0.00 | 62 | 1006.6 |
| 20260503110529 | 40 | 53 | 0.0 | 2.0 | 0.00 | 0.00 | 0.00 | 87 | 1004.9 |
| 20260503081444 | 49 | 70 | 0.0 | 1.0 | 0.00 | 0.00 | 0.00 | 67 | 1004.8 |
| 20260503080946 | 49 | 70 | 1.0 | 3.0 | 0.00 | 0.00 | 0.00 | 66 | 1004.9 |
| 20260503080443 | 49 | 70 | 1.0 | 3.0 | 0.00 | 0.00 | 0.00 | 66 | 1005.0 |
| 20260503072942 | 51 | 79 | 1.0 | 2.0 | 0.00 | 0.00 | 0.00 | 62 | 1005.0 |
| 20260503072440 | 51 | 55 | 0.0 | 2.0 | 0.00 | 0.00 | 0.00 | 61 | 1005.1 |
| 20260503071441 | 52 | 56 | 2.0 | 5.0 | 0.00 | 0.00 | 0.00 | 60 | 1005.3 |
| 20260503070940 | 52 | 41 | 3.0 | 5.0 | 0.00 | 0.00 | 0.00 | 60 | 1005.4 |
| 20260503070440 | 52 | 26 | 2.0 | 4.0 | 0.00 | 0.00 | 0.00 | 60 | 1005.4 |
| 20260503054931 | 54 | 169 | 3.0 | 8.0 | 0.00 | 0.00 | 0.00 | 54 | 1005.7 |
| 20260503054432 | 54 | 161 | 3.0 | 6.0 | 0.00 | 0.00 | 0.00 | 54 | 1005.8 |
| 20260503053933 | 55 | 177 | 3.0 | 6.0 | 0.00 | 0.00 | 0.00 | 54 | 1005.8 |
| 20260503053432 | 55 | 171 | 3.0 | 8.0 | 0.00 | 0.00 | 0.00 | 54 | 1005.9 |
| 20260503052930 | 55 | 158 | 2.0 | 8.0 | 0.00 | 0.00 | 0.00 | 54 | 1005.9 |